Temp
12 12 12 12 12 11 11 11 13 14 14 14 13 12 13 13 13 13 13 13 13 13 13 13 13 13 13 13 13 13 13 13 14 14 14 14 15 15 15 15 15 15 15 15 14 14 14 14 14 15 15 15 16 16 16 16 16 16 15 15 15 14 14 14 14 14 14 14 14 14 14 14 14 14 14 14 14 14 14 13 13 13 13 13 13 13
12 12 12 12 12 11 11 11 12 13 14 14 13 12 12 12 13 13 14 13 12 12 12 13 13 13 13 13 13 13 13 13 14 14 14 14 14 14 15 15 15 15 15 14 14 14 13 14 14 14 15 15 15 15 15 15 15 15 15 14 14 14 14 14 14 14 14 14 13 13 13 13 13 13 14 14 14 13 13 13 13 13 13 13 13 13
12 12 12 12 12 11 11 10 11 12 14 14 13 12 12 12 13 13 14 13 12 12 12 12 12 12 12 13 13 13 13 13 13 13 14 14 14 14 14 14 14 14 14 14 13 13 13 13 13 14 14 14 14 15 15 14 14 14 14 13 13 13 14 13 13 13 13 13 13 13 13 13 13 13 13 13 13 13 13 13 13 13 13 12 12 12
12 12 12 11 12 12 11 11 10 11 13 13 13 13 12 12 12 13 13 12 12 12 12 12 12 12 12 12 12 12 13 13 13 13 13 13 13 13 13 13 13 13 13 13 13 13 13 13 13 13 13 13 14 14 14 13 13 13 13 13 13 13 13 13 13 13 13 13 13 13 13 13 13 13 13 13 13 13 13 13 12 12 12 12 12 12
12 12 12 12 11 12 12 11 10 11 12 13 13 13 13 12 12 12 12 12 12 11 11 11 11 11 11 11 11 12 12 12 12 12 12 12 12 12 13 13 13 12 12 12 12 12 12 12 13 13 13 13 13 13 13 13 13 13 13 13 13 13 13 13 12 12 12 12 12 13 13 13 13 13 13 13 13 13 13 12 12 12 12 11 11 11
12 12 12 12 11 11 12 11 11 10 11 12 12 13 12 12 12 12 12 12 12 11 11 11 11 11 11 11 11 11 11 11 12 12 12 12 12 12 12 12 12 11 11 11 11 11 11 11 11 11 11 12 12 12 12 12 12 12 12 12 12 12 12 12 12 12 12 12 12 12 12 12 12 12 12 12 12 12 12 12 12 11 11 11 11 11
11 11 11 11 11 11 11 11 11 10 10 11 11 12 12 12 12 12 12 12 12 11 11 11 11 11 10 10 10 10 10 10 11 11 11 11 11 11 11 11 11 11 10 10 10 10 10 11 11 10 10 10 11 11 11 11 11 12 12 12 12 11 11 11 11 12 12 12 12 12 12 12 12 12 12 12 12 12 11 11 11 11 11 10 10 10
11 11 11 11 11 11 11 11 11 10 10 10 11 11 12 12 12 12 11 11 11 11 11 11 11 11 10 10 10 10 10 10 10 10 11 11 11 11 11 10 10 10 10 10 10 10 10 10 10 10 10 10 10 10 10 10 11 11 11 11 11 11 11 11 11 12 12 12 12 12 12 12 11 11 11 11 11 11 11 11 10 10 10 10 10 10
10 10 10 11 11 11 11 11 11 10 10 10 10 11 11 11 11 11 11 11 11 11 11 11 11 11 11 10 10 10 10 10 10 10 10 10 11 11 11 11 10 10 10 10 10 10 10 10 10 10 10 10 10 10 10 10 10 10 11 11 11 11 11 11 11 11 11 11 11 11 11 11 11 11 11 11 10 10 10 10 10 10 10 10 10 10
10 10 10 10 11 11 11 10 11 11 10 10 10 10 11 11 11 11 10 10 11 11 11 11 11 11 11 11 10 10 10 10 10 10 10 10 10 11 11 11 11 11 11 10 10 10 10 10 10 10 10 10 10 10 10 10 10 10 10 10 10 10 11 11 11 11 11 11 11 11 11 11 11 11 11 10 10 10 10 10 10 9 9 9 9 9
9 10 10 10 10 10 10 10 10 10 10 10 10 10 10 11 11 10 10 10 10 11 11 11 11 11 11 11 10 10 10 10 10 10 10 10 10 10 10 10 11 11 11 11 11 10 10 10 9 10 10 10 10 10 10 10 10 10 10 10 10 10 10 10 11 11 11 11 11 11 11 11 11 11 11 11 10 10 10 10 9 9 9 9 9 9
9 9 10 10 10 10 10 10 10 10 10 10 9 10 10 10 10 10 10 10 10 10 11 11 11 11 11 11 10 10 10 10 10 10 10 10 10 10 10 10 10 10 10 11 11 11 11 11 10 9 9 9 9 9 9 9 9 9 9 9 9 9 9 10 10 10 10 10 10 11 10 10 10 10 10 10 10 10 10 9 9 9 9 9 9 9
9 9 9 9 10 10 10 10 10 10 10 9 9 10 10 10 10 10 10 10 10 10 11 11 11 11 11 11 10 10 10 10 10 10 10 10 10 10 10 10 9 9 9 9 10 10 11 11 11 11 10 9 9 9 9 9 9 9 9 9 9 9 9 9 10 10 10 10 10 10 10 10 10 10 10 10 10 9 9 9 9 9 8 8 8 8
9 9 9 9 9 10 10 10 10 10 10 9 9 10 10 10 10 10 10 10 10 10 10 10 10 10 10 11 11 10 10 10 10 10 10 10 10 10 9 9 9 9 9 9 9 9 9 10 10 11 11 11 10 10 9 9 9 8 8 8 8 8 9 9 9 10 10 10 10 10 10 10 10 10 10 10 9 9 9 9 9 8 8 8 8 8
9 9 8 8 9 9 9 10 10 10 10 9 9 9 9 9 10 10 9 10 10 10 10 9 9 9 9 10 10 10 10 10 10 10 10 9 9 9 9 9 9 9 9 9 9 9 9 9 9 9 10 10 11 11 10 10 10 9 9 9 9 9 9 9 9 10 10 10 10 10 10 10 10 10 10 9 9 9 9 9 9 8 8 8 8 9
8 9 8 9 9 9 10 10 10 10 9 9 9 9 9 9 10 10 9 9 9 9 9 9 9 9 9 10 10 10 10 10 10 10 9 9 9 9 9 9 9 9 9 9 9 9 9 9 9 9 9 9 10 10 11 11 10 10 10 10 10 9 9 10 10 10 10 10 10 10 10 10 10 9 9 9 9 9 9 9 9 8 8 8 8 8
7 8 8 8 9 9 10 10 10 10 9 9 9 9 9 9 9 9 9 9 9 9 9 9 9 9 9 9 9 10 10 9 9 9 9 9 9 9 9 9 9 9 9 9 9 9 9 9 9 9 8 9 9 10 10 10 10 10 11 10 10 10 10 10 10 10 10 10 10 10 10 10 9 9 9 9 9 9 9 8 8 8 8 8 8 8
2 3 4 6 7 7 7 7 8 9 9 9 9 9 9 9 9 9 9 9 9 9 9 9 9 9 9 9 9 9 9 9 9 9 8 8 9 9 9 9 9 9 8 8 8 8 8 8 8 8 8 9 9 10 10 10 10 10 10 10 10 10 10 10 10 10 10 10 10 10 10 9 9 9 9 9 9 9 9 8 8 8 8 8 8 8
-0 0 1 2 3 3 3 3 4 5 6 7 7 8 9 9 9 9 9 9 9 9 9 10 10 10 10 9 9 9 9 9 9 8 8 8 8 9 9 9 9 9 9 8 8 8 8 8 8 8 8 9 9 9 10 10 10 10 10 10 10 10 10 10 10 10 10 10 9 9 9 9 9 9 9 9 9 9 9 8 8 8 8 8 8 8
-1 -1 -1 0 1 1 1 2 2 2 3 4 6 7 8 9 9 9 9 9 9 9 10 10 10 10 9 9 9 9 9 9 8 8 8 7 8 8 9 9 9 9 9 9 9 9 9 8 8 8 8 9 9 9 9 9 9 9 10 10 10 10 10 10 10 10 10 9 9 9 9 9 9 9 9 9 9 9 9 8 8 8 8 8 8 7
-2 -2 -1 -1 -0 0 1 1 1 1 2 4 5 6 7 8 9 9 9 9 9 9 9 9 9 9 9 8 8 9 9 9 8 8 7 7 7 8 8 9 9 9 9 9 9 9 8 8 8 8 8 8 9 9 9 9 9 9 9 9 10 9 9 9 9 9 9 9 9 9 8 8 8 8 8 8 8 8 8 8 8 8 8 8 7 7
-2 -2 -2 -2 -1 -0 -0 -0 0 1 2 3 4 5 6 7 8 9 9 9 9 9 9 9 9 9 8 8 8 8 9 9 8 8 7 7 7 7 8 8 8 8 9 9 9 8 8 8 8 8 8 8 8 8 9 9 9 9 9 9 9 9 9 9 9 9 8 8 8 8 8 8 8 8 8 8 8 8 8 8 8 8 7 7 7 7
-3 -3 -2 -2 -1 -1 -1 -0 0 1 2 3 4 4 5 5 6 8 9 9 9 8 8 8 8 8 7 7 7 8 8 8 8 8 8 7 6 7 7 8 8 8 7 8 8 8 8 8 7 7 8 8 8 8 8 8 9 9 9 9 9 8 8 8 8 8 8 8 7 7 7 7 7 7 7 7 7 7 7 7 7 7 7 7 7 7
-3 -3 -3 -2 -2 -1 -1 -1 -0 1 2 3 4 5 5 5 5 6 7 8 7 7 7 7 7 7 6 7 7 7 8 8 8 8 7 6 6 6 7 7 7 7 7 7 7 7 7 7 7 7 7 7 7 7 7 8 8 8 8 8 8 8 7 7 7 7 7 7 7 7 7 6 6 6 7 7 7 7 7 7 7 7 7 7 6 6
-3 -3 -3 -3 -2 -2 -1 -1 -0 0 1 2 3 4 5 5 6 6 6 7 7 7 7 7 6 6 5 6 6 6 7 7 8 7 7 6 6 6 7 7 6 6 6 7 7 7 7 7 7 7 7 7 7 7 7 7 7 7 7 7 7 7 7 7 6 6 6 6 6 6 6 6 6 6 6 6 6 6 6 6 7 6 6 6 6 6
-4 -4 -4 -3 -3 -3 -2 -1 -1 -0 0 1 3 4 5 5 6 6 6 6 6 6 6 6 6 5 5 5 5 5 6 7 7 7 7 6 6 6 6 6 5 5 5 6 6 7 7 7 7 7 7 7 7 7 6 6 6 6 6 6 6 6 6 6 6 6 6 6 5 5 5 5 5 5 5 6 6 6 6 6 6 6 6 6 6 6
-5 -4 -4 -4 -4 -4 -3 -2 -2 -1 -0 0 1 3 4 5 5 5 4 4 5 6 6 6 5 5 5 4 4 5 6 6 7 7 7 7 6 5 5 5 5 4 4 4 5 6 6 6 6 6 6 6 6 6 6 6 6 6 6 6 5 5 5 5 5 5 5 5 5 5 5 5 5 5 5 5 6 6 6 6 6 6 6 6 6 6
-5 -5 -5 -5 -5 -4 -4 -3 -3 -2 -1 -1 -0 1 2 3 3 2 1 2 4 6 6 6 5 5 4 4 3 4 5 5 6 6 6 6 6 5 4 4 4 4 3 3 4 5 5 4 4 5 5 5 5 5 5 5 5 5 5 5 5 5 5 5 5 5 5 4 4 4 4 5 5 5 5 5 6 6 6 6 6 6 6 6 6 6
-6 -6 -6 -5 -5 -5 -5 -4 -4 -3 -2 -2 -1 -1 -1 0 -0 -1 -0 1 3 5 6 6 5 5 4 3 2 3 3 4 5 5 6 6 5 4 3 3 4 4 4 3 3 3 3 3 3 3 4 4 4 4 4 4 4 4 4 4 4 4 4 4 4 4 4 4 4 4 4 4 5 5 5 5 5 5 5 5 5 5 5 5 6 6
-6 -6 -6 -6 -6 -5 -5 -5 -5 -4 -4 -3 -3 -3 -3 -2 -2 -2 -0 1 3 4 6 5 5 4 3 3 3 2 2 2 3 4 5 5 4 3 3 4 4 4 4 4 3 2 2 2 2 3 3 3 3 3 3 3 3 3 3 3 3 3 3 3 3 3 3 4 4 4 4 4 4 5 5 5 5 5 5 5 5 5 5 5 5 4
-7 -7 -6 -6 -6 -6 -6 -5 -5 -5 -4 -4 -4 -4 -4 -3 -3 -2 -1 0 1 3 4 4 4 4 4 5 4 2 1 1 2 3 4 4 4 3 3 4 4 4 5 4 3 2 1 1 1 2 2 2 2 2 2 2 2 2 2 2 2 2 2 2 3 3 3 3 3 3 3 4 4 4 5 5 5 5 5 5 4 4 4 3 3 3
-7 -7 -7 -7 -7 -6 -6 -6 -6 -5 -5 -5 -5 -5 -4 -4 -4 -3 -2 -1 -1 0 1 3 3 4 4 4 3 1 -0 -0 1 2 3 4 4 4 4 4 4 4 5 5 4 4 2 1 0 1 1 1 1 1 1 1 1 1 1 1 1 1 1 2 2 2 2 2 2 2 3 3 4 4 4 4 4 4 4 4 4 3 3 2 2 2
-7 -7 -7 -7 -7 -7 -7 -6 -6 -6 -6 -6 -5 -5 -5 -5 -5 -4 -4 -3 -2 -1 -1 0 1 1 1 1 -0 -1 -2 -1 0 1 2 3 4 4 4 4 4 4 4 4 4 4 3 1 0 0 0 0 0 0 0 0 0 0 0 0 0 0 0 1 1 1 1 1 2 2 2 3 3 4 4 4 4 4 4 4 4 3 3 2 2 2
-7 -7 -7 -7 -7 -7 -7 -7 -7 -6 -6 -6 -6 -6 -6 -6 -6 -5 -5 -4 -4 -3 -3 -2 -2 -1 -1 -1 -2 -3 -2 -1 0 1 2 3 4 4 3 3 3 4 4 4 3 2 2 1 0 -0 -0 -0 -0 -0 -0 -0 -0 -1 -1 -0 -0 -0 -0 0 1 1 1 1 1 2 2 2 3 3 3 3 3 3 3 3 3 3 3 3 2 2
-7 -7 -7 -7 -7 -7 -7 -7 -7 -7 -7 -7 -6 -6 -6 -6 -6 -6 -6 -5 -5 -5 -4 -4 -3 -3 -2 -2 -3 -3 -3 -2 -0 1 2 3 3 3 3 3 3 3 3 3 2 2 1 0 0 0 -0 -1 -1 -1 -1 -1 -1 -1 -1 -1 -1 -1 -0 0 1 1 1 1 2 2 2 2 2 2 2 2 3 3 3 3 3 3 3 3 3 2
-7 -7 -7 -8 -8 -8 -8 -8 -7 -7 -7 -7 -7 -6 -6 -6 -6 -6 -6 -6 -6 -6 -5 -5 -4 -4 -4 -4 -4 -4 -4 -2 -1 0 1 2 3 3 3 3 3 3 3 2 2 2 1 0 0 -0 -0 -1 -1 -1 -1 -2 -2 -1 -1 -1 -1 -1 -0 0 1 1 1 1 1 1 1 2 2 2 2 2 2 2 2 2 2 2 2 2 2 2
-7 -7 -8 -8 -8 -8 -8 -8 -8 -8 -7 -7 -7 -7 -7 -6 -6 -6 -6 -6 -6 -6 -6 -6 -5 -5 -5 -5 -4 -4 -4 -2 -1 0 1 1 2 2 2 2 2 2 2 2 2 1 1 0 0 -0 -0 -1 -1 -2 -2 -2 -2 -1 -1 -1 -1 -1 -0 0 0 1 1 1 1 1 1 1 1 1 1 1 1 2 2 2 2 2 2 1 2 2
-7 -7 -8 -8 -8 -8 -8 -8 -8 -8 -8 -8 -7 -7 -7 -7 -6 -6 -6 -6 -6 -6 -6 -6 -6 -6 -5 -5 -5 -4 -3 -2 -1 -0 0 1 1 2 2 2 2 2 2 2 2 1 1 1 0 0 0 -1 -1 -2 -2 -2 -2 -2 -2 -1 -1 -1 -1 -1 -0 -0 0 0 0 -0 0 0 0 0 0 0 1 1 1 1 1 1 1 1 1 1
-8 -8 -8 -8 -8 -8 -8 -8 -8 -8 -8 -8 -7 -7 -7 -7 -7 -6 -6 -6 -6 -6 -6 -6 -6 -6 -5 -5 -4 -4 -3 -2 -2 -1 -0 0 0 1 1 1 1 1 2 2 2 1 1 1 1 1 0 -1 -1 -2 -2 -2 -2 -2 -2 -2 -2 -2 -2 -1 -1 -1 -1 -1 -1 -1 -1 -1 -1 -1 -1 -1 -1 -1 -1 -1 -1 -0 -0 -0 -0 0
-8 -8 -8 -8 -8 -8 -8 -8 -8 -8 -8 -8 -8 -7 -7 -7 -7 -6 -6 -6 -6 -6 -6 -6 -6 -6 -6 -5 -5 -4 -4 -3 -2 -2 -1 -1 -1 -0 -0 -0 0 0 1 1 1 2 2 1 1 1 0 -0 -1 -2 -2 -2 -2 -2 -2 -2 -2 -2 -2 -2 -2 -2 -2 -2 -2 -2 -2 -2 -2 -2 -2 -1 -1 -1 -2 -2 -2 -1 -1 -1 -1 -1
-8 -8 -8 -8 -8 -8 -8 -8 -8 -8 -8 -8 -8 -7 -7 -7 -7 -6 -6 -6 -6 -6 -6 -6 -6 -6 -6 -6 -5 -5 -4 -4 -3 -3 -2 -2 -2 -1 -1 -1 -1 -1 0 1 1 1 1 1 1 0 -0 -1 -1 -2 -2 -2 -2 -2 -2 -2 -2 -3 -3 -2 -2 -2 -2 -2 -2 -2 -2 -2 -2 -2 -2 -2 -2 -2 -2 -2 -2 -1 -1 -1 -1 -1
-8 -8 -8 -8 -8 -8 -8 -8 -8 -8 -8 -8 -8 -8 -7 -7 -7 -6 -6 -6 -6 -6 -6 -6 -6 -6 -6 -6 -6 -6 -5 -5 -4 -4 -3 -3 -2 -2 -2 -2 -2 -1 -1 -1 -0 -0 -0 -0 -0 -1 -1 -1 -1 -2 -2 -2 -2 -2 -2 -2 -3 -3 -3 -3 -3 -2 -2 -2 -2 -2 -2 -2 -2 -2 -2 -2 -2 -2 -2 -1 -1 -1 -1 -1 -1 -1
-8 -8 -8 -8 -8 -8 -8 -8 -8 -8 -8 -8 -8 -8 -7 -7 -7 -7 -6 -6 -6 -6 -6 -6 -6 -6 -6 -6 -7 -6 -6 -6 -5 -5 -4 -3 -3 -2 -2 -2 -2 -2 -2 -2 -2 -2 -2 -1 -1 -1 -1 -1 -2 -2 -2 -2 -2 -2 -2 -3 -3 -3 -3 -3 -3 -3 -3 -3 -3 -2 -2 -2 -2 -2 -2 -2 -2 -2 -1 -1 -1 -1 -1 -1 -1 -1
-9 -9 -8 -8 -8 -8 -8 -8 -8 -8 -8 -8 -8 -8 -8 -7 -7 -7 -6 -6 -6 -6 -6 -6 -6 -6 -6 -6 -7 -7 -7 -6 -6 -5 -5 -4 -4 -3 -3 -2 -2 -2 -2 -3 -3 -3 -3 -2 -2 -2 -2 -2 -2 -2 -2 -3 -3 -3 -3 -2 -2 -2 -3 -3 -3 -3 -3 -3 -3 -3 -3 -3 -3 -2 -2 -2 -2 -2 -2 -2 -2 -2 -2 -2 -2 -2
-9 -9 -9 -8 -8 -8 -8 -8 -8 -8 -8 -8 -8 -8 -8 -7 -7 -7 -6 -6 -6 -7 -7 -6 -6 -6 -6 -6 -6 -7 -7 -6 -6 -6 -5 -5 -4 -4 -3 -3 -3 -3 -3 -3 -3 -3 -3 -3 -3 -3 -3 -2 -3 -3 -3 -3 -3 -3 -3 -3 -3 -3 -3 -3 -3 -3 -3 -3 -3 -3 -3 -3 -2 -2 -3 -3 -3 -3 -3 -3 -3 -3 -3 -2 -2 -2
-9 -9 -9 -9 -9 -9 -8 -8 -8 -8 -8 -8 -8 -8 -8 -8 -7 -7 -7 -7 -7 -7 -7 -7 -7 -6 -6 -6 -6 -6 -7 -7 -7 -6 -6 -6 -5 -5 -4 -4 -4 -4 -4 -4 -4 -4 -4 -4 -3 -3 -3 -3 -3 -3 -3 -3 -3 -3 -3 -3 -4 -4 -4 -4 -4 -4 -4 -4 -4 -4 -3 -3 -3 -3 -3 -3 -3 -3 -3 -3 -3 -3 -3 -3 -3 -3
-10 -10 -9 -9 -9 -9 -9 -9 -8 -8 -8 -8 -8 -8 -8 -8 -7 -7 -7 -7 -7 -7 -7 -7 -7 -7 -7 -7 -7 -7 -7 -7 -7 -7 -7 -6 -6 -6 -5 -5 -5 -4 -4 -4 -4 -4 -4 -4 -4 -4 -3 -3 -3 -3 -3 -3 -3 -3 -4 -4 -4 -4 -4 -4 -4 -4 -4 -4 -4 -4 -4 -3 -3 -3 -3 -3 -3 -3 -3 -3 -3 -3 -3 -3 -3 -3
-10 -10 -10 -10 -9 -9 -9 -9 -9 -9 -8 -8 -8 -8 -8 -8 -8 -7 -7 -7 -7 -7 -7 -7 -7 -7 -7 -7 -7 -7 -7 -7 -7 -7 -7 -7 -6 -6 -6 -6 -5 -5 -5 -5 -5 -5 -5 -4 -4 -4 -4 -4 -4 -4 -4 -4 -4 -4 -4 -4 -4 -4 -4 -4 -5 -5 -5 -5 -5 -4 -4 -4 -4 -3 -3 -3 -3 -3 -3 -3 -3 -3 -3 -3 -3 -3
-10 -10 -10 -10 -10 -10 -10 -9 -9 -9 -9 -9 -9 -8 -8 -8 -8 -8 -7 -7 -7 -7 -7 -7 -7 -7 -7 -7 -7 -7 -7 -7 -7 -7 -7 -7 -6 -6 -6 -6 -6 -6 -5 -5 -5 -5 -5 -5 -5 -5 -4 -4 -4 -4 -4 -4 -4 -4 -4 -4 -4 -4 -4 -5 -5 -5 -5 -5 -5 -4 -4 -4 -4 -4 -4 -4 -3 -3 -3 -3 -3 -3 -3 -3 -3 -3
-11 -11 -11 -10 -10 -10 -10 -10 -10 -9 -9 -9 -9 -9 -9 -8 -8 -8 -8 -7 -7 -7 -7 -7 -7 -7 -7 -7 -7 -7 -7 -7 -7 -7 -7 -7 -6 -6 -6 -6 -6 -6 -6 -5 -5 -5 -5 -5 -5 -5 -5 -5 -4 -4 -4 -4 -4 -4 -4 -4 -4 -4 -4 -4 -5 -5 -5 -5 -5 -5 -5 -5 -4 -4 -4 -4 -4 -4 -3 -3 -3 -3 -3 -4 -4 -4
-11 -11 -11 -11 -11 -10 -10 -10 -10 -10 -10 -9 -9 -9 -9 -9 -8 -8 -8 -8 -7 -7 -7 -7 -7 -7 -7 -7 -8 -8 -8 -8 -8 -7 -7 -7 -7 -6 -6 -5 -5 -5 -5 -5 -5 -5 -5 -5 -5 -5 -5 -5 -5 -5 -4 -4 -4 -4 -4 -4 -4 -4 -4 -4 -5 -5 -5 -5 -5 -5 -5 -5 -5 -5 -5 -4 -4 -4 -4 -3 -3 -3 -3 -3 -4 -4
Height
707 706 705 705 706 706 705 703 702 701 700 701 702 703 704 705 706 706 707 708 709 710 710 710 709 710 711 712 714 715 716 718 719 720 722 723 725 726 727 729 730 732 734 735 737 739 741 742 743 744 745 748 750 753 755 757 759 760 762 764 766 768 771 773 776 779 781 783 785 786 787 789 790 793 794 795 797 800 804 807 809 811 812 814 815 815
706 705 705 704 705 705 705 704 702 700 699 700 701 702 703 704 705 705 706 707 709 710 710 710 710 710 710 712 713 714 715 716 718 719 720 722 723 725 726 728 729 730 732 734 735 738 740 741 742 743 744 746 749 750 753 755 757 759 761 763 765 767 770 774 777 779 780 782 784 785 786 788 790 792 793 794 796 799 804 808 810 812 813 814 815 815
705 705 703 703 703 704 704 704 702 700 699 699 700 701 702 703 703 704 705 707 709 710 710 710 710 710 710 711 712 714 714 715 717 718 720 721 722 723 725 726 728 730 731 733 735 737 739 740 741 742 744 745 747 749 751 753 755 758 760 762 764 766 770 774 776 778 780 781 783 785 786 788 789 791 793 794 795 798 804 808 811 812 813 814 815 815
704 703 702 702 702 702 703 703 702 701 699 698 699 700 702 702 703 702 703 706 708 710 710 710 710 710 711 712 713 714 715 715 716 717 719 720 722 723 724 726 727 729 731 733 735 737 738 739 740 742 744 745 747 749 751 753 755 758 761 762 764 766 769 773 776 778 780 781 784 785 786 787 789 790 792 794 795 798 803 808 811 812 814 814 815 816
702 701 701 701 701 700 700 702 702 700 699 698 698 700 701 702 702 702 703 705 708 710 710 710 711 711 711 713 714 715 715 716 716 718 719 721 722 724 725 726 728 730 732 734 735 736 737 738 740 742 744 746 748 750 752 754 755 758 760 762 764 766 769 773 776 778 780 781 783 784 785 786 788 790 792 794 795 798 802 807 810 813 814 815 815 816
700 700 700 700 699 699 699 700 701 701 700 698 697 698 700 701 702 702 703 704 707 709 710 711 711 712 712 713 715 716 716 717 718 719 720 722 723 724 725 726 728 730 732 734 735 736 737 738 740 742 745 747 749 750 752 754 755 758 760 761 764 767 770 774 776 778 779 780 782 783 785 786 788 790 792 794 796 798 801 806 810 813 814 815 816 817
700 699 699 699 698 698 698 699 700 701 700 699 698 698 699 700 701 702 703 704 705 708 710 711 712 712 713 714 715 716 717 718 720 721 722 723 724 725 726 727 729 730 733 734 736 737 738 740 741 744 746 748 750 751 753 754 756 759 761 763 765 769 772 775 777 778 779 780 781 783 785 786 788 790 793 795 796 799 802 805 810 813 815 816 817 817
699 698 698 698 697 697 697 697 698 699 699 699 698 697 698 699 700 701 703 704 705 707 709 711 712 713 714 715 716 717 718 720 721 722 724 725 726 727 728 730 731 732 734 735 737 739 740 741 743 745 747 749 751 752 754 755 758 760 763 765 768 770 773 775 777 778 779 780 782 784 785 787 789 791 793 795 797 800 803 806 810 813 815 816 817 818
698 697 697 697 697 696 696 696 696 698 699 699 698 697 697 698 699 701 703 704 705 706 707 710 711 713 714 715 717 718 719 721 722 723 724 726 727 729 730 732 733 735 736 737 738 740 742 743 745 747 749 750 752 754 756 757 760 762 765 767 770 772 774 776 777 778 779 781 783 785 786 788 790 791 793 795 798 801 804 807 811 814 816 817 818 819
696 696 696 696 696 696 695 695 695 696 698 698 698 697 697 697 697 699 702 703 704 705 706 708 710 712 714 715 717 718 720 721 723 724 725 726 728 730 731 733 734 736 737 738 740 742 743 745 746 748 750 751 753 755 757 759 761 763 766 768 771 773 775 776 778 779 780 781 783 785 788 790 791 792 794 796 799 801 805 809 812 815 817 818 819 819
694 695 695 695 695 695 694 694 694 695 696 697 698 698 698 696 696 697 700 702 703 705 706 707 709 711 713 715 716 718 720 722 724 725 726 727 729 730 732 734 735 736 737 739 740 742 744 746 748 750 751 753 755 756 759 761 763 765 767 770 772 774 775 777 778 779 781 782 784 786 788 790 792 794 795 798 800 803 806 810 814 816 818 819 819 820
692 693 694 694 694 693 693 693 693 693 695 696 698 698 698 696 695 695 698 700 702 703 705 706 708 710 712 714 715 718 720 721 723 725 727 728 730 731 733 735 736 737 739 740 741 742 744 746 749 751 753 754 756 758 760 762 764 766 768 770 773 775 776 777 778 780 781 783 785 787 789 791 793 795 797 799 801 805 808 812 815 817 819 819 819 819
691 692 692 693 692 692 691 691 692 692 693 695 695 695 695 695 695 696 697 698 700 702 703 705 707 710 711 713 715 717 719 721 723 725 727 729 730 732 734 735 737 738 740 741 743 744 745 746 748 750 753 755 757 759 760 763 765 767 770 771 773 774 775 777 779 780 782 784 786 788 790 792 794 795 797 800 803 806 810 812 815 818 819 819 819 818
689 690 691 691 690 690 689 689 690 690 691 692 693 693 693 694 695 696 697 698 700 701 702 704 706 709 711 713 715 717 719 721 723 725 727 729 730 732 733 735 737 739 740 742 744 745 746 748 749 751 752 754 756 758 760 763 765 767 769 771 773 774 775 777 779 781 783 785 787 789 790 792 794 796 798 801 804 807 810 813 815 817 819 818 818 817
687 689 690 689 689 688 687 687 687 687 689 691 693 693 693 694 695 695 696 698 699 700 701 703 705 708 710 712 715 717 719 721 723 725 728 730 731 732 734 735 737 739 740 742 744 745 747 748 750 752 753 754 755 757 759 762 764 767 769 770 772 774 776 778 780 782 784 786 788 789 790 792 794 796 799 801 805 808 810 813 815 817 818 818 817 817
685 686 687 687 687 686 685 685 685 686 687 690 692 692 692 693 693 693 695 696 697 698 700 702 705 708 711 713 715 717 719 721 723 725 727 730 732 734 734 736 737 739 740 742 744 746 747 749 750 752 754 755 755 757 759 761 764 766 768 770 772 774 776 779 781 783 785 787 788 790 791 793 795 797 799 802 805 808 810 813 815 816 817 817 816 816
686 685 685 685 685 685 684 684 684 685 686 689 690 690 690 690 690 691 693 693 694 695 697 699 702 706 711 714 715 717 718 720 723 725 727 730 732 735 735 737 738 740 741 742 744 745 747 749 751 752 754 755 756 757 759 761 764 765 767 770 772 774 777 779 781 784 785 787 789 790 792 794 796 798 800 802 805 808 810 813 814 815 816 816 815 816
690 690 689 687 686 685 685 685 685 685 685 687 689 689 689 689 689 690 691 691 691 692 694 696 699 702 706 711 714 716 718 720 722 725 727 730 732 735 736 738 739 740 742 743 745 746 748 749 751 753 754 755 757 759 760 762 764 766 768 770 772 775 777 779 781 784 785 787 789 791 793 795 797 799 801 803 805 807 810 811 813 813 814 814 815 815
695 694 692 691 690 689 687 686 686 685 684 685 686 688 689 689 689 689 689 689 688 689 691 695 698 700 704 707 711 714 717 719 722 724 727 730 732 735 737 739 741 742 744 744 745 747 749 750 752 753 755 756 758 760 762 764 765 767 769 771 773 775 777 779 781 784 785 787 789 791 793 795 798 800 801 803 805 807 808 810 811 811 812 813 815 815
698 697 695 694 693 691 689 688 687 686 684 683 684 685 688 688 689 689 689 688 687 687 689 692 696 700 703 706 710 713 716 719 721 724 727 730 733 735 738 740 742 744 745 745 746 747 749 750 752 754 756 758 760 761 763 765 767 769 770 772 774 776 778 780 782 784 785 787 789 791 793 795 797 799 801 803 805 806 807 808 809 810 811 812 814 815
701 700 699 697 696 695 693 690 688 686 684 683 682 684 687 688 689 689 688 687 686 686 688 691 696 700 702 705 709 712 715 717 720 723 727 730 733 735 738 741 743 745 745 746 747 748 749 750 753 755 757 759 760 762 764 766 768 770 771 773 775 777 779 780 782 784 786 787 789 791 793 795 797 799 800 802 803 805 806 807 808 809 810 811 813 815
704 703 701 699 698 697 695 692 688 685 683 682 682 683 686 688 689 688 687 686 685 684 686 690 695 699 702 705 708 711 715 716 718 721 726 730 734 736 738 741 743 745 745 746 747 748 749 751 753 756 758 760 762 764 765 767 769 770 772 774 776 778 780 781 783 785 786 788 790 792 794 796 798 799 800 802 803 804 805 806 807 808 809 810 812 813
706 705 703 701 700 699 696 692 687 684 683 682 682 684 686 689 690 689 687 685 683 683 685 689 694 698 702 705 708 711 714 716 718 720 724 730 733 736 738 741 743 745 745 745 746 747 749 751 754 757 759 761 763 765 766 768 770 771 773 775 777 779 780 782 784 786 787 789 791 793 795 796 798 799 800 802 803 804 805 806 806 807 808 809 811 812
709 707 706 705 703 701 697 692 687 684 683 683 683 684 686 689 690 689 686 683 682 682 685 690 695 700 703 705 708 711 714 717 718 720 724 729 733 735 738 740 742 744 745 745 746 748 750 752 755 758 761 763 764 766 768 769 771 773 775 776 778 780 781 783 785 786 788 790 791 793 795 797 798 799 800 801 803 804 805 805 806 807 808 809 810 811
711 710 709 708 706 703 698 692 687 685 684 683 683 684 686 689 689 687 684 682 682 684 687 691 696 701 704 706 708 711 714 717 719 721 723 728 732 736 739 740 742 743 745 746 747 748 750 754 757 760 762 764 766 767 769 771 772 774 775 777 779 780 782 784 785 787 789 790 792 794 795 797 798 799 800 801 803 804 804 805 806 806 807 808 809 810
715 714 712 710 707 703 697 691 688 686 685 683 683 684 686 688 687 685 684 684 685 685 687 692 697 701 704 706 710 713 716 718 720 722 723 727 732 736 739 741 742 743 745 746 747 749 751 755 758 760 763 765 767 769 770 772 774 775 776 778 780 781 783 784 786 787 789 790 792 794 795 797 798 799 800 801 802 803 804 805 805 806 807 807 808 808
717 715 714 711 707 701 695 690 687 686 685 684 684 685 686 686 685 685 686 686 686 686 687 692 697 701 705 708 712 715 717 720 722 723 725 727 731 736 740 741 741 742 744 746 748 750 753 756 759 761 763 766 768 770 772 773 775 776 777 779 780 782 783 785 786 787 789 790 792 794 795 796 798 799 800 801 802 803 803 804 805 805 806 806 807 807
716 715 713 710 705 700 694 690 688 687 687 686 687 687 688 686 686 688 690 689 688 688 688 692 696 701 706 710 714 716 719 720 723 725 726 727 731 735 739 740 741 741 744 747 750 752 754 757 760 762 764 766 768 770 773 774 776 777 779 780 781 782 784 785 786 788 789 790 792 793 795 796 797 798 799 800 801 802 802 803 804 804 805 805 806 806
714 712 710 707 703 698 694 692 690 690 690 690 691 691 690 689 690 692 693 691 690 690 691 693 697 702 707 711 715 717 720 721 723 725 727 728 731 735 738 740 740 741 744 748 751 754 757 759 761 763 765 766 768 770 773 775 776 778 779 780 781 783 784 785 786 788 789 790 791 793 794 795 796 798 799 800 800 801 801 802 803 804 804 805 805 806
714 710 707 703 700 697 695 694 694 694 694 694 695 695 694 692 693 694 695 693 692 693 694 697 700 703 707 711 715 718 721 723 725 725 727 729 732 735 737 740 741 742 743 747 752 757 760 762 763 764 765 767 769 770 772 774 775 777 779 780 782 783 784 785 786 788 789 790 791 792 794 795 796 797 798 799 800 800 801 802 803 804 804 805 806 806
716 713 709 705 702 699 697 697 696 696 696 697 697 697 696 695 695 695 695 695 696 697 699 701 703 705 707 709 713 719 724 725 725 726 727 729 732 734 736 739 741 743 743 745 750 756 762 765 765 766 766 767 769 771 772 774 775 777 778 780 781 783 785 785 786 788 789 790 791 792 793 794 795 796 797 798 799 800 801 802 803 804 805 805 806 807
720 717 715 712 709 705 703 702 701 700 700 700 700 699 698 697 697 697 698 699 700 701 702 704 706 707 707 708 712 718 724 725 726 727 728 730 732 734 736 738 741 744 745 745 747 751 758 764 767 768 768 769 770 771 773 775 776 777 778 780 781 783 785 785 786 787 789 790 791 792 793 794 795 796 797 798 799 800 801 802 803 804 805 806 807 808
723 721 719 717 715 713 711 710 708 707 706 705 705 703 702 701 701 701 702 703 704 704 705 706 708 709 710 711 714 719 723 725 726 727 728 730 732 735 737 738 740 743 746 748 749 751 755 760 765 768 769 770 771 773 774 775 776 778 779 780 781 782 784 785 786 787 788 790 790 792 793 794 795 796 797 798 799 800 801 802 803 804 805 806 807 808
725 723 721 720 719 718 717 716 715 714 713 712 710 709 708 707 706 707 707 707 708 708 708 709 710 712 713 715 718 721 724 726 727 727 728 729 731 734 737 739 740 743 745 749 751 755 757 760 763 766 770 771 773 774 775 776 777 778 779 780 781 782 784 785 785 787 788 789 790 791 792 794 795 796 797 798 799 800 801 802 803 804 805 806 807 808
726 724 723 721 721 720 720 720 719 719 718 717 716 715 715 714 713 713 713 713 713 713 713 713 714 715 716 718 721 724 726 727 728 728 728 729 731 734 737 739 740 742 745 748 751 756 760 763 764 766 769 772 774 775 776 777 778 778 779 780 781 782 784 785 786 787 788 789 790 791 792 793 795 795 797 798 799 800 801 802 803 804 805 805 806 807
727 725 724 723 722 722 721 721 721 721 721 721 721 721 720 720 720 719 719 718 718 718 718 718 718 719 720 721 723 725 728 729 729 729 729 730 731 734 736 739 741 742 744 747 750 755 759 763 765 767 768 771 774 776 777 778 778 779 780 781 782 783 784 785 786 787 788 789 790 791 793 794 795 796 797 798 799 800 800 802 803 804 805 806 806 807
730 728 727 726 725 724 723 723 722 723 723 724 724 724 724 724 724 724 723 723 722 721 721 721 722 723 724 725 726 727 729 730 730 730 730 731 732 733 736 739 741 743 745 747 750 753 757 761 765 767 769 771 773 775 777 778 779 780 781 782 783 784 785 786 787 787 788 790 791 792 793 794 795 796 797 798 799 800 801 802 803 804 805 806 807 808
732 731 731 730 729 728 726 726 725 725 725 726 726 726 727 727 727 727 726 726 725 725 724 724 725 725 726 727 728 729 729 730 730 731 731 732 733 735 736 739 742 744 746 747 749 751 754 758 762 766 769 771 773 774 776 777 779 780 781 783 784 785 785 786 787 788 789 790 791 792 794 795 795 796 797 798 799 800 801 802 803 804 805 806 807 808
735 735 735 734 734 733 732 731 731 730 730 730 730 730 730 730 729 729 729 728 728 727 727 727 727 728 728 729 729 730 730 731 732 732 733 734 735 736 738 740 742 745 746 749 750 752 753 755 758 762 766 770 773 775 776 777 779 780 781 783 784 785 786 787 788 789 790 791 792 793 794 795 796 797 798 799 800 801 802 803 803 804 805 806 807 807
740 739 739 739 738 738 737 737 737 736 735 734 734 733 732 732 732 732 731 731 731 730 730 730 730 730 730 730 731 731 732 733 734 735 735 736 737 738 740 741 743 745 747 749 751 753 755 756 758 761 764 767 771 774 776 778 779 780 781 783 785 786 788 788 789 790 791 792 793 794 795 796 797 798 799 800 800 802 803 804 804 805 805 806 807 807
744 743 743 742 742 742 741 741 740 740 739 738 737 736 735 735 735 735 735 735 734 734 734 734 733 733 733 733 733 734 735 735 736 737 738 739 739 740 741 743 745 746 748 750 752 754 756 757 760 762 765 767 770 773 775 777 779 780 781 783 785 787 788 790 790 792 792 793 794 795 795 796 797 798 799 800 800 801 802 803 804 804 805 805 806 807
748 747 747 746 746 745 745 744 743 742 742 740 740 739 739 739 739 739 739 738 738 738 737 737 737 736 736 736 737 737 737 738 739 740 740 741 742 742 743 745 746 747 749 750 752 755 757 758 760 763 765 767 770 773 775 778 780 781 782 784 785 787 789 790 791 792 793 794 794 795 796 797 797 798 799 800 800 801 802 802 803 804 804 805 805 806
752 751 751 750 750 749 748 747 746 745 744 744 743 743 743 743 743 743 742 742 741 741 741 741 740 740 740 740 740 741 741 741 742 742 743 744 745 745 746 747 748 749 750 752 754 756 758 760 762 764 766 768 770 772 775 778 780 781 783 784 785 787 789 790 791 792 793 794 794 795 796 796 797 798 799 799 800 800 801 802 802 803 804 804 805 805
755 754 754 753 752 751 750 749 749 748 748 747 747 746 746 746 746 745 745 745 745 745 744 744 744 743 743 744 744 745 745 745 745 745 745 746 747 748 749 750 751 752 753 754 756 758 760 762 764 766 768 769 771 773 775 777 779 781 783 785 785 787 788 790 791 792 793 794 794 795 795 796 797 797 798 799 799 800 800 801 802 802 803 803 804 804
758 757 756 755 755 754 753 752 752 751 751 750 750 750 750 749 749 749 749 748 748 747 747 747 746 746 746 747 748 748 748 748 748 748 749 750 750 751 752 753 754 755 756 757 759 760 762 764 766 768 770 771 772 774 775 777 780 781 783 785 786 787 788 790 791 792 793 794 794 795 795 796 796 797 798 798 799 800 800 801 801 802 802 803 803 803
760 759 759 758 757 756 756 755 755 755 754 754 753 753 753 752 752 752 751 751 750 750 750 749 749 749 750 750 751 751 751 751 751 752 752 753 753 754 755 755 756 757 759 760 761 763 764 766 768 770 771 772 774 775 777 778 780 782 783 785 786 787 789 790 791 792 793 793 794 794 795 795 796 797 797 798 799 800 800 800 801 801 802 802 802 802
763 762 761 760 760 759 759 758 758 757 757 756 756 756 755 755 755 754 754 754 753 753 752 752 751 752 753 754 754 754 755 755 755 756 756 757 757 757 758 759 759 760 761 762 764 765 766 768 770 771 773 774 776 777 779 780 781 782 784 785 786 787 789 790 791 792 792 793 793 794 795 795 796 796 797 798 799 799 800 800 800 801 801 801 801 801
765 765 764 764 763 762 761 761 760 760 760 759 759 758 758 758 757 757 756 756 755 755 755 755 755 755 756 756 757 757 758 758 759 759 760 760 760 761 761 762 762 763 764 765 766 767 768 770 771 773 775 776 777 779 780 781 782 783 785 785 787 788 789 790 791 791 792 792 793 794 795 795 796 796 797 798 798 799 800 800 800 800 800 800 800 800
767 767 766 766 765 765 764 764 763 763 762 762 761 761 760 760 759 759 758 758 757 757 757 757 757 758 758 759 760 760 760 761 761 762 762 763 764 764 765 765 765 766 766 767 768 769 770 771 773 775 776 778 779 780 781 782 783 784 785 786 787 788 789 790 791 791 792 792 793 794 794 795 795 796 797 798 798 799 799 799 800 800 799 799 799 799
769 768 768 767 767 767 766 766 765 765 765 764 764 763 763 762 761 761 760 760 760 759 759 759 760 760 760 761 762 762 763 763 764 764 765 765 766 766 767 768 768 768 769 770 770 771 772 774 775 776 778 779 780 781 782 783 784 785 786 787 788 788 789 790 791 791 792 792 793 794 794 795 796 796 797 797 798 798 798 799 799 799 799 799 799 799
770 770 770 769 769 769 768 768 768 767 767 766 766 765 765 764 763 763 762 762 762 761 761 761 762 762 763 764 764 765 765 765 766 766 767 768 768 769 769 770 770 770 771 772 772 773 774 776 777 779 780 780 781 782 783 784 785 785 786 787 788 789 790 790 791 791 792 793 793 794 795 795 796 796 797 797 797 798 798 798 798 799 799 798 798 798
Wind_Speed
23 20 18 17 17 19 20 20 20 20 19 16 16 17 18 18 17 17 16 16 15 14 14 18 22 24 24 24 25 25 26 26 26 27 27 28 28 28 28 28 29 30 31 32 30 29 29 30 32 33 35 35 36 35 35 35 34 33 33 32 30 28 26 27 28 28 29 32 33 33 33 32 30 28 26 24 22 20 19 19 20 20 19 19 18 17
22 20 17 17 17 18 20 21 21 20 19 17 17 17 18 17 17 16 15 14 13 13 13 16 19 22 23 24 24 25 25 25 25 25 26 26 27 27 27 27 27 28 29 29 28 27 27 27 28 29 31 32 33 34 34 33 31 30 29 28 27 27 27 29 30 31 33 34 33 32 31 30 28 26 24 23 22 20 19 19 19 19 19 18 18 17
19 16 15 16 16 17 19 21 22 21 19 18 18 18 17 16 16 16 15 13 13 13 13 15 17 20 21 22 24 25 25 25 25 25 25 24 25 26 26 26 26 26 27 27 27 26 26 25 25 25 26 27 29 29 29 28 27 26 26 27 28 29 30 31 32 32 33 32 30 28 27 26 25 24 23 22 22 21 20 20 19 19 18 18 17 17
20 17 17 15 16 18 19 21 22 21 19 18 18 18 18 17 17 17 17 15 13 13 13 14 16 18 20 20 22 23 25 26 26 25 25 24 24 25 25 25 25 24 24 24 24 24 23 23 22 22 22 24 25 25 25 26 27 27 28 29 31 31 32 33 32 31 30 28 27 26 25 24 24 24 23 23 23 22 21 20 19 18 18 18 17 17
21 19 19 16 15 17 21 22 22 21 19 17 18 19 18 18 18 19 20 18 15 13 13 14 15 17 19 20 21 21 23 24 26 26 26 26 26 27 27 26 25 24 24 23 23 23 23 22 21 20 20 20 22 24 26 28 29 30 30 30 31 31 32 31 30 29 28 27 27 26 26 26 25 25 25 24 24 23 22 21 19 18 18 18 18 18
21 20 19 16 15 16 19 22 24 23 21 19 18 19 19 19 19 20 21 20 18 14 13 14 15 16 17 18 18 18 19 21 23 25 27 29 30 30 31 31 30 29 28 27 27 26 26 26 26 25 24 24 24 25 27 28 28 28 29 29 30 30 31 31 30 30 30 29 28 28 27 27 26 26 25 25 24 24 23 22 20 19 19 19 19 19
21 20 18 16 15 16 17 21 23 24 24 21 18 20 21 21 20 20 21 22 21 18 15 14 14 15 16 16 16 16 16 17 19 21 23 26 28 31 33 33 33 32 31 30 29 29 29 29 29 28 27 27 26 26 27 27 27 27 28 28 30 31 31 32 32 31 31 30 29 28 27 26 26 25 24 24 23 23 23 22 21 20 20 19 19 19
21 20 17 15 15 15 16 20 23 25 25 22 20 20 21 21 21 21 21 21 22 21 18 16 15 15 16 17 17 17 16 16 16 17 18 20 22 24 27 29 30 31 31 31 31 31 32 31 30 30 29 28 28 28 28 28 28 28 29 30 31 32 32 31 31 30 29 29 28 27 26 25 25 24 24 24 23 23 23 22 22 21 20 20 19 19
21 20 18 18 16 14 15 18 23 26 26 24 21 20 20 21 21 21 21 20 21 22 21 19 17 16 16 18 19 19 19 18 18 18 19 18 18 19 20 21 23 24 26 27 29 31 32 32 32 32 31 30 30 30 30 30 30 30 31 31 31 31 30 29 28 27 27 26 26 25 24 24 24 24 24 24 24 24 23 23 22 21 20 20 19 19
22 21 20 20 19 17 15 15 20 26 27 27 24 22 22 22 20 19 19 20 20 21 22 21 19 18 18 18 19 19 19 19 19 20 20 21 21 21 20 20 19 19 20 21 23 25 28 30 31 32 32 32 32 32 31 31 31 31 31 31 30 28 27 26 25 25 25 24 24 23 23 23 23 23 24 24 24 24 23 22 22 21 20 20 19 19
19 21 21 20 20 19 18 16 19 23 26 27 26 25 23 22 21 18 17 18 18 20 21 21 21 21 20 19 19 18 18 18 18 19 20 21 22 23 23 22 22 21 20 19 19 20 22 24 26 28 30 30 31 31 31 31 30 30 29 28 27 26 25 24 24 23 23 23 23 23 23 23 23 23 23 23 23 23 22 22 21 21 20 20 20 19
16 17 18 19 20 19 19 18 18 20 22 23 23 22 22 24 22 20 18 17 18 20 22 22 22 22 22 21 19 18 18 18 18 19 20 20 21 22 22 22 23 23 23 22 21 20 20 20 22 24 25 27 28 28 28 28 28 27 27 26 25 24 24 24 23 23 23 23 23 24 24 25 25 25 25 24 24 23 23 22 22 21 21 20 20 19
16 15 16 18 19 19 18 17 16 16 18 19 20 19 19 22 24 22 20 20 21 22 24 24 23 23 22 21 20 19 19 18 18 18 18 19 19 20 21 22 22 22 23 23 23 23 23 23 22 22 23 23 24 25 25 25 25 25 25 24 24 24 24 24 23 23 23 23 24 25 26 26 26 26 26 26 25 24 24 23 23 22 21 21 20 19
16 16 16 17 18 19 18 18 17 15 17 18 20 21 22 23 23 23 21 21 22 23 24 24 23 22 22 22 21 20 20 19 19 18 17 18 18 20 21 22 21 21 21 21 21 24 25 26 26 25 25 24 23 22 22 23 23 24 24 24 24 24 24 24 24 24 24 25 27 27 28 28 27 27 26 26 25 24 24 23 23 22 21 20 19 19
16 15 13 12 14 17 18 18 18 17 18 20 21 22 24 24 22 21 20 19 21 23 24 23 22 21 20 23 23 22 21 21 20 19 18 18 18 19 20 21 21 21 21 21 21 23 25 25 26 27 28 28 27 26 25 24 25 25 25 25 25 25 25 24 24 25 26 27 28 29 29 28 28 27 26 25 24 23 23 22 21 21 20 19 18 17
16 17 12 10 12 16 18 18 18 18 18 20 21 22 23 23 22 20 20 20 21 23 22 21 18 17 18 23 25 25 23 22 22 21 20 19 18 18 19 20 20 20 21 22 23 23 24 24 24 26 28 30 31 31 30 30 29 28 27 27 26 26 26 26 25 26 26 27 28 28 27 27 26 26 25 24 24 23 22 21 20 19 18 17 16 15
10 14 16 13 14 18 21 20 19 18 18 21 23 23 22 22 23 21 19 20 21 21 22 20 12 8 11 18 23 25 25 24 23 22 21 20 19 18 18 19 19 20 21 22 22 23 23 23 24 25 27 30 32 33 34 34 33 32 31 29 29 28 27 27 27 27 27 26 26 26 25 25 24 24 24 23 23 22 21 20 19 18 17 15 14 13
10 7 6 7 10 12 12 11 12 15 16 19 22 23 22 23 23 22 20 21 21 21 21 20 15 9 7 11 19 25 27 26 24 22 21 20 19 19 18 18 19 19 20 21 21 21 21 22 23 25 28 31 32 33 34 35 35 34 33 33 32 31 31 30 29 28 28 27 26 25 25 24 24 23 23 22 22 21 21 20 18 17 15 14 12 11
13 13 12 9 7 5 4 3 4 6 8 11 12 12 13 18 21 22 22 22 23 23 22 20 19 18 16 18 23 28 29 28 26 23 20 19 19 20 19 18 18 19 19 20 20 20 20 21 23 26 29 31 33 33 33 34 34 34 34 34 34 35 34 33 32 31 30 28 28 27 26 26 25 24 24 23 22 21 20 19 17 16 14 13 12 10
15 15 15 13 11 10 8 7 6 5 4 6 8 6 5 10 16 21 21 22 23 25 26 23 21 21 22 23 26 30 31 30 27 24 21 19 20 21 20 19 19 19 19 19 20 20 20 21 23 26 29 31 33 33 33 33 33 33 33 34 34 35 35 35 34 33 32 31 30 29 29 28 27 26 25 24 23 21 20 18 17 16 14 13 11 10
17 18 19 17 14 10 8 9 8 6 5 4 6 5 5 7 13 18 20 21 22 24 24 22 21 22 24 25 27 30 32 31 28 24 21 18 18 20 22 21 21 20 20 20 20 20 21 22 24 26 29 31 32 32 32 32 32 32 32 33 33 33 33 33 33 32 32 31 31 30 29 28 27 26 25 24 23 21 20 19 17 16 15 13 12 10
18 19 21 21 17 12 10 10 9 8 7 7 8 5 1 3 10 17 20 20 21 21 21 20 21 24 26 26 27 29 30 30 28 25 21 16 15 18 22 23 22 21 20 21 21 22 22 23 24 26 28 29 30 31 31 32 32 32 32 32 32 32 32 31 31 30 30 30 29 29 28 27 26 25 24 23 22 21 20 19 18 17 15 14 12 10
22 22 23 22 19 16 13 13 12 10 9 9 10 9 5 1 5 13 20 20 20 21 22 24 26 28 29 28 27 28 28 28 29 28 23 14 12 16 22 24 22 21 20 21 22 23 23 23 23 24 26 27 28 29 30 31 31 31 31 31 31 30 30 29 29 28 28 28 27 27 27 26 25 25 24 23 22 21 20 19 18 16 15 14 12 10
25 24 24 24 22 19 17 18 17 15 13 11 11 11 8 4 2 7 15 21 24 27 29 31 31 29 27 26 26 26 26 27 27 25 21 14 14 18 22 24 23 22 20 21 22 23 25 24 23 23 24 25 26 27 28 29 29 30 29 29 29 28 28 28 27 27 27 27 26 26 26 25 25 24 23 23 22 20 19 18 16 15 14 12 11 9
25 25 24 24 23 22 22 23 23 21 17 15 15 15 13 10 11 16 23 28 30 31 31 30 26 21 20 22 23 24 25 25 25 23 20 15 15 19 23 24 23 21 21 23 26 27 28 27 25 24 24 24 25 26 26 27 28 28 28 28 27 27 27 27 27 27 26 26 26 26 25 25 24 23 23 22 21 19 18 16 15 13 12 11 9 8
24 24 24 24 24 25 27 28 28 26 22 19 18 17 16 15 17 20 23 24 26 28 27 22 16 14 16 18 18 19 22 24 24 24 24 19 17 19 21 23 23 23 23 26 28 30 30 29 28 27 26 25 25 25 25 26 26 27 27 27 27 27 27 27 27 26 26 26 25 25 24 24 23 22 22 20 19 18 16 14 13 12 11 9 8 6
23 23 24 25 26 28 31 32 32 30 27 24 21 19 18 19 20 19 15 13 15 21 22 15 10 10 14 14 14 16 21 22 23 24 26 25 21 19 19 22 26 28 27 28 30 31 30 28 27 27 28 27 26 25 25 25 26 26 27 27 27 27 27 27 26 26 26 25 25 24 24 23 22 21 20 19 17 16 14 12 11 10 9 8 6 5
23 24 25 26 28 31 33 35 35 33 31 29 26 23 22 22 21 17 14 12 8 14 19 15 10 8 8 9 12 16 21 21 21 23 25 24 21 18 20 24 29 30 29 29 30 31 29 27 26 26 28 28 28 27 26 25 25 25 25 25 26 26 26 26 26 25 25 24 24 23 22 21 20 19 18 17 15 14 12 11 9 8 7 6 5 3
26 27 28 29 31 33 35 36 36 35 34 32 30 28 26 25 22 18 14 12 10 10 16 17 15 12 11 12 15 18 19 19 20 22 24 22 19 19 23 26 29 31 30 27 27 28 27 26 26 26 27 28 28 27 26 26 25 25 25 24 25 25 24 24 24 24 23 23 22 21 20 20 19 18 17 15 14 12 11 9 8 7 5 4 3 2
29 29 31 33 34 35 36 37 36 35 35 34 32 31 31 30 27 23 20 17 15 12 14 16 18 18 18 16 14 12 12 14 17 21 22 20 18 20 25 25 27 28 28 22 17 15 17 21 24 25 26 27 27 27 27 26 26 26 25 24 24 23 23 23 23 22 22 21 21 20 19 18 18 17 16 15 13 12 10 9 7 6 5 4 3 3
27 28 30 32 34 35 37 37 36 36 36 35 34 33 33 32 31 28 25 23 20 17 15 15 17 19 19 12 7 4 4 8 13 18 21 19 19 22 25 24 24 26 26 22 12 4 6 11 17 22 24 26 26 26 26 26 25 25 25 24 24 23 23 23 22 22 21 20 20 19 18 17 17 16 15 14 13 11 10 8 8 7 6 5 4 3
24 25 26 28 31 33 35 35 36 36 36 36 35 34 34 34 33 31 29 27 24 21 18 15 14 15 15 11 7 5 4 7 11 16 20 19 20 24 25 24 23 23 23 23 18 12 6 5 11 18 23 24 25 24 24 24 24 24 24 24 24 23 23 23 23 22 21 20 19 18 18 17 16 15 14 13 12 11 9 9 8 8 7 6 4 3
22 23 25 26 28 30 32 33 33 34 35 35 35 35 35 35 34 33 31 29 26 24 21 19 17 16 16 17 15 12 10 10 11 15 19 20 20 21 23 24 23 22 21 21 21 19 14 12 13 17 20 22 22 22 22 22 22 22 23 24 24 23 23 23 23 22 21 20 19 18 17 16 15 14 13 12 11 10 9 8 8 8 8 7 5 3
22 24 25 25 26 27 28 30 31 31 32 33 33 34 34 34 34 33 32 31 29 27 24 22 20 19 18 18 17 16 15 13 12 15 19 20 20 20 22 23 23 23 22 21 20 19 18 17 17 17 17 19 20 20 21 20 20 21 22 22 22 22 23 23 23 22 21 20 19 17 16 15 14 13 12 11 10 9 8 7 7 7 7 8 7 5
22 23 24 25 25 25 26 27 28 28 29 30 31 32 32 33 33 33 32 32 31 30 28 26 23 21 20 18 15 14 15 13 13 15 18 19 20 20 21 21 22 23 23 22 21 20 18 18 19 18 16 16 17 18 19 19 19 19 20 21 21 22 22 22 21 21 20 18 17 16 14 13 12 11 10 9 8 7 6 5 5 5 4 5 6 6
21 23 24 25 25 25 25 25 26 26 27 28 29 29 30 31 31 31 32 31 31 31 31 30 28 26 24 22 19 17 16 13 12 14 16 19 21 21 20 19 22 24 23 22 22 22 20 18 18 19 18 15 13 14 16 17 18 19 19 20 20 20 20 19 19 18 17 16 14 13 12 11 10 9 8 7 6 5 4 4 3 3 3 3 3 4
21 22 23 24 24 24 24 25 25 25 25 26 26 27 28 28 29 29 30 31 31 31 31 32 31 30 28 26 25 22 19 15 13 13 15 18 21 22 21 20 21 23 22 21 22 23 23 20 18 17 16 14 12 12 14 16 18 18 17 17 17 17 16 16 15 14 13 13 12 11 10 9 8 7 6 5 4 4 3 3 3 3 3 3 3 4
21 22 23 23 23 23 24 24 24 25 24 24 24 25 25 25 26 27 28 29 30 30 31 31 31 31 31 29 28 26 23 19 16 15 16 19 21 23 23 21 21 21 21 21 23 24 24 20 16 14 13 12 12 13 14 16 16 16 16 15 15 14 13 12 11 11 10 10 10 9 8 7 6 5 5 4 3 2 1 2 3 3 3 3 4 4
21 21 22 22 22 22 22 22 23 23 23 23 22 22 22 23 24 25 26 27 28 29 30 30 30 31 31 31 30 28 25 23 20 19 19 20 22 22 22 21 20 19 20 21 22 23 23 21 19 17 15 14 13 14 14 14 15 15 15 15 14 12 11 10 10 9 9 9 9 8 7 6 5 5 5 5 5 4 3 1 1 1 1 1 1 2
20 21 21 21 21 21 21 20 21 21 21 21 21 21 21 21 22 23 24 25 26 26 28 28 29 30 31 31 31 30 28 26 24 22 21 21 22 22 22 20 19 18 19 20 20 20 19 19 19 19 19 17 16 15 14 13 14 15 15 14 12 11 11 10 10 9 9 9 9 9 8 8 7 7 7 7 7 6 6 4 3 2 2 3 3 2
19 19 20 20 20 20 20 20 20 20 20 21 21 22 22 21 21 20 21 22 23 23 24 25 27 29 30 31 32 31 30 29 27 24 23 22 22 22 22 21 20 19 20 20 20 19 18 18 17 18 18 18 18 16 15 14 14 15 15 13 12 12 12 11 10 10 9 9 9 9 9 9 8 8 8 8 8 8 8 8 6 5 4 5 5 5
18 18 18 18 19 19 19 19 20 20 21 22 22 23 22 21 20 19 19 20 20 20 21 21 22 24 26 29 30 31 30 30 28 26 24 23 22 22 22 22 22 21 21 21 21 20 19 19 18 18 18 18 18 17 15 14 14 14 13 13 14 13 12 11 10 10 10 10 10 10 9 9 8 8 7 7 7 8 8 8 7 6 5 5 6 6
17 17 17 17 17 18 19 19 20 20 21 22 22 22 22 21 20 18 17 17 18 18 18 18 19 20 21 23 25 27 29 29 28 27 26 24 23 22 22 22 22 22 22 22 22 21 20 20 19 18 18 19 19 18 16 15 14 14 13 14 14 13 9 9 9 10 10 10 10 10 9 9 8 8 7 6 6 5 5 5 5 5 5 6 6 6
16 16 16 17 17 18 18 19 19 19 19 20 21 21 21 21 19 18 17 16 16 16 16 16 17 18 19 19 20 22 25 27 28 27 26 25 24 23 23 22 22 22 23 23 22 21 21 20 19 18 18 19 18 18 17 16 15 14 13 13 12 11 9 10 10 10 9 9 9 9 9 8 8 7 6 4 3 3 3 3 3 4 4 5 5 5
15 16 16 16 17 17 18 18 18 18 18 19 19 20 20 20 19 18 17 16 16 16 16 16 16 16 17 17 17 18 20 23 25 26 26 25 24 23 23 23 22 22 23 23 22 21 21 19 18 18 18 18 18 17 16 16 15 14 12 11 11 11 12 12 11 10 9 8 8 8 8 7 6 5 4 3 3 2 2 2 2 3 3 4 4 5
15 16 16 16 16 17 17 17 17 17 17 18 18 19 19 20 19 18 17 16 15 16 16 16 16 16 16 16 16 16 17 19 21 23 24 24 24 23 23 23 23 23 23 23 22 22 21 19 17 17 17 17 16 16 15 15 14 13 12 12 12 13 13 12 10 9 8 7 7 6 6 6 5 5 5 4 4 4 3 3 4 4 4 5 5 5
15 15 15 15 16 16 16 16 16 16 16 17 17 18 18 19 18 18 17 16 15 15 15 16 17 17 16 16 15 15 15 16 17 19 20 21 21 22 22 22 22 22 23 23 23 22 21 19 17 16 15 15 14 14 13 13 13 12 11 12 12 12 11 10 10 9 8 7 6 6 5 5 5 5 4 4 4 4 4 4 4 5 5 6 6 6
14 14 14 15 15 15 15 16 16 15 16 16 16 17 18 18 17 17 16 16 15 15 15 16 16 16 16 16 16 15 15 15 15 16 17 17 18 19 19 20 20 21 22 22 23 22 22 20 19 17 15 14 13 12 12 12 12 11 11 10 10 10 10 9 9 8 7 6 5 5 6 6 5 4 4 4 3 3 3 4 4 5 5 6 6 6
14 14 14 14 14 14 15 15 15 15 15 15 15 16 17 17 17 16 16 15 15 15 15 15 15 15 15 15 15 15 15 15 15 15 15 15 15 15 15 16 17 18 20 20 21 21 21 21 20 18 16 14 12 11 11 11 11 10 10 9 9 9 9 8 8 6 5 4 4 4 5 5 5 5 4 4 3 3 3 3 3 4 4 5 5 5
14 14 13 13 13 13 14 14 14 14 14 14 14 14 15 16 17 17 16 15 15 15 15 15 15 15 14 14 14 15 15 15 15 15 14 14 13 13 12 12 13 14 15 15 16 17 17 18 18 18 17 15 13 11 10 10 10 10 9 9 9 9 9 8 7 6 5 4 3 3 3 3 3 3 3 3 2 2 2 3 3 3 3 4 4 5
13 13 13 13 13 13 13 13 13 13 13 13 13 14 14 15 16 16 16 15 15 15 15 15 15 15 14 14 14 14 14 14 14 14 13 13 13 12 10 9 9 9 9 9 10 10 10 11 11 13 15 14 13 11 9 8 8 9 9 8 8 8 8 8 7 7 6 5 4 3 3 2 2 2 2 2 2 1 2 2 2 2 2 2 3 3
Wind_Direction
261 267 275 280 280 275 264 246 225 209 199 192 187 188 190 194 198 202 204 208 211 210 203 200 203 207 210 213 214 214 213 213 214 215 215 216 216 216 217 217 217 217 216 214 212 211 210 208 205 204 206 210 213 215 215 214 212 210 208 205 201 197 194 196 195 189 181 176 169 163 161 161 163 164 164 164 164 167 171 175 178 180 182 183 184 185
257 261 266 267 268 268 265 254 238 219 203 190 184 184 184 187 191 194 197 203 204 198 184 174 175 179 182 188 193 196 198 200 202 205 207 208 209 210 211 211 211 210 208 205 203 203 203 201 199 197 199 201 205 207 208 207 205 202 198 193 189 185 185 188 184 175 168 170 167 161 158 159 160 161 162 162 164 167 173 178 181 182 183 183 183 181
253 256 257 258 257 258 260 256 245 228 208 192 185 184 182 183 183 182 181 187 190 186 177 169 162 158 160 168 174 177 179 181 184 187 189 191 194 197 198 200 200 200 200 200 199 198 197 196 194 193 193 194 196 197 196 193 190 185 182 178 175 175 176 177 171 163 163 167 166 160 158 158 158 159 161 162 163 167 174 180 182 182 181 180 177 173
251 252 253 253 251 251 253 254 247 232 213 193 184 183 182 181 176 170 167 170 174 175 171 166 156 148 146 153 157 159 163 164 166 166 166 166 171 175 175 178 182 184 184 185 186 185 184 186 188 190 192 194 193 189 182 176 171 168 166 166 166 167 168 171 165 158 160 161 160 158 158 158 159 161 163 165 166 169 174 178 180 179 176 173 169 164
249 249 250 250 248 247 249 251 248 238 222 196 182 180 182 181 173 163 158 160 163 166 165 162 156 147 140 140 140 144 150 151 153 153 149 148 150 152 152 152 155 157 154 151 151 153 154 156 159 163 168 175 176 171 165 162 160 159 159 159 160 161 162 163 160 157 157 157 156 156 157 157 159 161 164 165 166 168 171 174 174 172 169 165 161 157
247 247 247 246 243 242 245 249 249 244 232 210 187 177 181 181 175 164 157 157 159 160 160 157 154 150 144 141 138 136 136 137 139 140 139 138 138 137 135 134 134 133 132 130 129 130 132 134 135 135 136 138 141 144 145 147 149 150 152 152 153 153 154 155 155 155 155 155 155 155 155 155 157 158 160 161 161 161 163 165 165 164 161 158 155 152
247 247 246 243 241 239 241 245 247 244 235 220 199 183 179 179 175 168 162 159 158 158 158 156 152 148 146 146 144 138 131 128 128 130 130 131 132 130 127 126 125 125 124 124 124 124 124 125 125 125 126 127 129 130 132 134 136 140 143 145 147 149 151 152 153 152 152 152 153 153 153 153 154 154 154 154 153 153 154 155 156 156 155 153 151 148
245 246 245 242 240 239 238 240 242 242 237 226 210 193 180 179 177 173 169 162 158 157 157 155 152 149 149 150 150 147 141 137 135 133 133 132 131 130 129 127 125 124 124 124 124 124 124 124 124 126 127 128 129 129 130 131 133 137 141 144 146 149 151 151 151 150 150 150 150 150 150 150 150 149 148 147 147 146 147 148 149 150 150 149 147 145
238 241 242 241 239 238 235 236 239 240 238 231 217 198 182 179 179 180 178 170 163 158 156 155 152 151 151 152 153 151 148 148 147 146 145 145 144 143 140 136 133 131 129 127 125 125 125 126 128 130 132 132 133 133 134 134 136 139 142 145 147 148 148 148 148 147 146 146 145 145 145 145 144 144 143 142 142 142 143 144 146 147 147 146 145 143
234 236 239 239 238 235 231 230 234 237 238 234 224 208 189 177 175 180 184 184 173 161 157 154 153 151 152 153 154 153 151 151 150 150 151 152 152 152 151 149 147 144 141 137 134 131 130 130 131 132 133 134 135 136 137 138 139 141 143 144 145 145 145 145 144 143 142 141 140 139 140 140 140 140 140 140 140 141 142 144 145 147 147 146 144 143
232 233 236 238 236 234 230 227 228 232 235 234 230 219 201 183 173 172 180 184 176 165 158 155 153 152 153 154 154 153 150 149 149 149 151 153 154 154 154 155 155 154 152 149 146 144 141 140 138 136 136 135 136 137 137 139 140 141 141 142 142 143 143 142 141 140 139 139 138 138 139 141 141 141 141 142 143 144 145 147 148 148 148 146 144 142
230 230 233 235 234 231 228 225 224 226 229 230 229 223 211 198 183 171 171 173 170 164 158 154 152 151 153 153 152 150 148 146 147 148 149 150 151 152 153 153 154 154 154 154 153 152 150 149 148 146 144 141 139 138 139 140 141 142 142 143 143 143 142 141 140 139 139 139 139 141 142 144 145 145 145 145 146 148 149 150 151 150 149 147 144 141
230 227 230 231 230 226 222 219 217 217 221 225 226 223 216 205 194 182 172 167 164 160 154 149 147 148 150 150 150 148 148 146 145 145 146 147 147 148 149 149 150 150 150 150 152 154 154 153 153 152 151 150 148 146 145 145 145 145 145 146 145 145 144 143 142 142 142 142 143 144 146 147 147 147 147 147 148 150 151 152 152 152 151 149 145 142
228 225 227 229 227 223 217 212 209 211 217 222 224 221 215 206 197 189 182 176 166 155 148 143 141 142 144 147 148 147 147 145 144 143 142 143 144 144 143 144 145 146 145 144 147 150 153 153 154 155 156 156 155 153 151 150 150 149 149 148 147 147 146 146 146 147 148 149 149 149 149 149 148 148 148 148 149 151 152 153 154 154 153 151 148 145
223 221 224 226 226 222 216 209 205 207 213 218 220 217 212 207 199 189 183 173 161 150 142 137 134 134 137 145 147 147 146 143 141 141 141 141 141 141 139 138 138 139 140 141 144 147 148 149 151 154 157 159 159 158 156 154 152 151 150 149 148 148 148 148 149 150 151 152 151 150 149 148 148 148 148 149 151 152 154 155 156 157 156 153 150 148
225 218 219 222 223 219 212 204 201 203 206 211 213 211 208 206 201 191 180 167 155 146 139 135 130 130 135 143 146 147 146 143 141 140 140 139 140 140 139 137 135 135 137 139 141 143 144 144 146 150 153 157 160 161 160 159 157 154 152 150 150 150 151 151 152 152 153 152 150 148 147 146 147 147 148 150 152 154 156 158 159 159 157 154 150 147
257 232 227 225 224 222 216 209 201 197 198 204 208 210 208 206 200 190 174 162 153 146 143 140 136 132 137 140 143 146 145 142 141 139 137 136 138 140 140 138 136 136 136 137 137 138 139 140 142 146 151 156 160 161 161 161 160 158 155 153 152 153 153 153 154 154 154 152 150 148 146 146 147 148 150 151 154 156 158 160 160 159 157 153 150 146
356 336 294 267 246 233 224 215 201 190 186 195 205 211 212 209 201 189 176 163 154 148 146 144 143 141 141 143 145 145 144 141 137 133 130 130 134 138 140 139 137 136 135 136 136 136 137 138 142 147 151 156 159 160 161 161 161 159 158 156 156 155 155 155 155 154 154 154 152 151 150 151 152 153 154 155 158 160 161 161 160 159 156 152 148 146
12 11 6 2 358 356 7 35 84 123 154 174 190 208 221 211 200 188 177 164 155 149 146 145 145 144 142 143 144 144 143 141 135 128 124 124 131 136 139 139 137 135 136 136 135 135 136 139 145 150 153 156 157 159 160 160 160 159 158 157 157 156 156 155 154 154 154 154 155 155 156 157 158 159 159 160 161 162 163 162 160 157 154 152 149 147
13 10 6 359 354 353 359 13 30 49 79 152 173 195 234 205 193 187 178 165 155 149 146 144 143 142 140 139 140 142 143 141 135 128 123 120 125 133 137 140 139 137 137 137 136 136 137 142 148 153 155 156 157 157 158 159 159 158 158 157 156 156 155 155 154 154 154 155 156 157 158 160 161 162 162 163 163 164 163 161 159 157 155 153 151 150
15 11 6 1 353 345 342 350 5 25 52 109 144 172 209 190 181 180 176 163 152 146 144 142 141 139 137 135 137 140 142 140 136 130 125 119 119 126 133 137 138 137 135 136 136 136 137 143 149 154 156 157 157 157 158 158 158 158 158 157 157 156 156 155 155 155 156 157 158 159 160 162 163 163 164 164 165 164 163 162 160 158 157 156 155 154
15 10 7 6 1 351 339 345 2 29 59 85 95 99 168 191 185 181 175 161 150 143 139 137 135 134 134 134 135 138 141 141 137 131 126 118 111 116 126 130 131 127 123 126 130 133 136 140 147 153 157 158 158 157 158 158 159 159 159 158 158 158 158 157 158 158 158 159 160 161 162 163 164 165 165 166 166 165 165 164 162 159 159 158 157 157
18 13 11 10 7 1 358 7 23 45 68 86 93 95 97 31 213 189 172 156 143 133 126 123 126 130 132 132 132 134 138 140 138 134 129 124 114 115 122 126 123 115 109 113 120 128 133 136 141 149 156 158 158 157 157 159 159 160 159 159 159 159 159 159 159 160 160 160 161 161 163 164 165 166 166 167 167 167 167 166 164 161 160 159 159 158
21 18 15 14 13 15 20 28 36 46 61 79 94 102 98 87 133 152 145 137 130 124 120 121 123 124 125 125 125 127 133 137 138 135 130 125 119 119 122 124 118 110 107 110 116 123 129 133 138 145 152 156 157 157 157 159 159 159 158 158 159 159 160 160 160 160 160 160 160 161 162 163 164 165 166 167 167 168 167 166 164 162 160 159 158 157
24 22 20 18 18 24 33 40 43 47 55 70 84 93 96 97 107 117 122 124 124 123 122 121 119 116 115 115 114 119 129 136 138 136 130 124 119 121 124 124 118 110 107 112 119 124 126 129 134 140 146 152 155 156 156 157 157 157 157 157 158 158 159 159 159 158 158 158 159 160 161 162 163 164 165 166 167 167 167 166 164 162 160 159 158 155
26 25 23 21 23 28 36 43 47 50 55 64 76 88 97 101 107 108 107 112 120 124 123 120 117 115 112 109 108 114 125 133 136 136 135 130 124 124 125 124 118 111 105 108 115 120 121 123 128 134 139 145 150 153 153 153 153 154 155 155 155 156 156 157 157 157 157 157 157 158 160 161 162 163 165 166 166 166 165 164 162 161 160 159 157 153
25 25 25 25 27 31 37 42 46 50 54 59 68 82 95 102 100 89 70 77 110 124 121 119 114 111 109 105 106 115 126 130 133 136 137 135 131 127 125 123 119 112 104 103 108 113 115 115 117 123 129 135 141 145 148 149 148 148 149 150 150 152 154 154 154 154 155 155 156 157 158 160 161 163 164 165 165 164 162 161 160 159 159 158 155 151
23 24 26 27 30 34 38 42 45 48 51 54 60 70 83 91 83 61 31 28 74 117 122 122 118 113 110 105 106 113 123 126 130 134 136 135 132 128 127 125 121 115 107 103 105 109 111 109 108 111 118 125 131 135 139 141 142 142 143 144 146 149 151 151 152 152 153 154 155 156 158 159 161 163 164 164 163 161 159 158 158 158 158 156 153 148
23 24 26 28 31 35 38 40 43 46 49 52 54 58 64 69 64 51 35 33 53 96 120 122 121 119 116 110 105 106 110 118 126 132 134 132 130 130 131 128 124 120 115 109 105 104 103 103 104 107 111 118 123 127 130 133 134 135 136 139 142 145 147 148 148 149 150 152 153 155 157 159 161 162 163 162 160 158 157 156 155 152 149 142 131 114
20 22 25 28 30 33 37 38 40 43 46 49 50 50 52 55 55 52 52 53 57 75 106 116 121 123 122 117 108 97 94 104 120 131 133 133 133 134 135 133 131 129 126 121 110 98 94 97 102 107 111 115 118 121 123 125 127 128 128 131 134 137 140 143 144 146 148 150 152 154 156 159 161 161 161 160 158 156 154 151 145 134 121 106 90 71
17 20 23 26 29 32 35 36 37 40 43 46 46 46 46 48 50 53 57 60 61 69 89 106 119 127 130 128 121 100 82 91 114 128 134 137 140 141 139 138 137 137 136 134 130 107 95 94 101 109 114 116 116 117 119 121 122 123 123 124 126 128 133 138 140 141 143 146 149 151 154 156 158 159 159 157 155 153 150 144 134 120 105 96 93 93
18 22 24 27 30 33 34 35 36 37 39 41 42 42 43 45 48 51 54 59 63 67 73 85 99 111 119 113 105 99 95 94 111 126 135 138 142 145 143 142 140 141 141 139 138 136 129 118 111 112 114 115 115 116 119 121 123 124 124 125 124 126 130 135 137 138 139 141 144 147 150 153 155 156 156 154 152 149 145 139 131 122 113 109 112 120
21 24 26 29 32 34 35 36 37 37 38 39 39 40 42 44 46 49 51 55 60 64 68 71 75 81 89 90 90 89 88 94 110 125 132 136 141 145 145 143 141 141 140 137 134 133 130 132 126 118 115 114 115 117 120 123 125 126 127 128 127 129 133 136 137 136 137 138 140 143 146 148 150 151 151 150 148 145 142 139 135 132 130 131 132 130
22 24 26 29 31 33 35 37 38 38 38 38 37 38 40 42 45 47 50 53 56 61 65 68 70 73 79 84 85 83 80 89 108 122 128 134 139 143 145 143 142 140 136 132 128 125 125 127 128 125 119 116 116 118 120 122 124 127 130 130 130 131 134 137 138 138 138 140 140 140 142 144 145 146 146 145 144 142 140 139 138 139 143 147 146 141
23 24 25 26 28 29 31 34 35 37 37 37 37 38 40 42 44 47 49 52 55 59 62 67 72 77 82 84 82 74 67 81 104 120 126 132 137 140 142 143 143 141 136 135 133 131 129 129 131 131 127 121 118 119 121 121 124 128 130 131 132 132 134 137 138 138 139 140 141 140 142 143 144 145 145 145 145 144 141 139 139 142 148 157 160 159
25 24 24 23 24 25 27 28 30 32 34 35 36 38 40 42 45 47 50 53 56 59 62 66 71 76 81 83 80 73 67 78 101 119 125 131 136 138 139 141 142 141 138 138 139 139 138 136 135 134 133 128 123 120 122 125 127 129 130 132 132 132 134 136 138 139 140 141 142 143 146 149 151 151 151 154 157 160 159 157 156 157 165 177 189 194
27 25 24 23 22 22 23 24 25 27 28 30 33 36 38 41 44 47 50 53 57 60 63 65 68 70 73 76 76 75 75 83 99 115 123 129 133 135 134 136 138 139 139 140 141 142 141 138 137 136 135 134 132 129 126 126 128 129 130 133 135 136 136 139 141 143 145 145 146 148 153 157 159 160 160 165 174 185 194 197 196 195 198 203 210 215
27 26 25 23 22 22 22 21 22 22 24 26 28 32 35 39 42 45 48 51 55 58 61 64 66 67 69 71 72 75 79 86 96 108 118 123 127 129 129 130 133 136 138 142 144 144 143 142 141 141 141 137 135 133 132 129 127 127 130 135 138 139 138 141 145 148 149 149 150 151 153 154 155 153 149 149 152 162 192 225 227 221 216 214 215 215
25 25 24 24 23 22 22 21 20 21 22 24 26 30 33 37 40 43 46 48 51 54 58 61 63 65 67 69 72 75 79 83 91 100 109 115 119 122 124 123 124 129 135 141 145 146 147 147 148 148 146 140 136 134 134 132 130 129 130 131 130 130 130 132 135 139 144 145 144 141 139 134 129 124 121 115 110 110 118 141 225 232 211 200 218 233
24 23 23 22 22 22 22 21 21 22 23 26 28 31 33 34 36 39 42 45 48 51 54 57 60 63 65 67 69 72 75 79 84 91 98 103 109 113 115 114 115 120 128 135 141 145 147 147 146 146 145 144 142 140 136 134 134 134 131 126 122 120 120 122 124 126 131 134 133 132 131 128 126 124 124 125 130 138 145 153 170 184 173 156 162 195
23 22 20 19 20 21 22 22 23 25 27 29 30 30 31 32 32 33 37 41 44 46 49 53 56 59 62 64 66 68 71 74 78 83 88 93 97 101 105 103 105 111 119 125 129 132 135 135 135 136 138 139 139 137 135 134 136 136 134 130 127 125 124 122 122 123 125 127 129 130 130 131 132 135 138 143 152 161 168 172 181 192 196 184 180 182
22 20 18 17 17 19 20 22 25 28 30 31 31 31 30 29 29 30 33 36 38 40 43 46 49 52 54 56 59 63 66 69 73 78 83 88 92 94 95 96 98 103 108 111 112 113 117 121 124 128 132 135 134 132 130 131 133 134 133 132 129 127 124 123 124 125 128 129 130 130 130 132 135 140 148 156 169 182 192 199 207 215 218 214 209 205
19 17 16 16 17 19 21 24 26 28 30 31 31 30 29 29 29 30 32 35 36 38 40 43 47 50 51 51 52 55 59 64 68 73 77 83 88 92 93 93 94 97 100 100 98 99 104 109 113 119 127 131 131 129 128 127 127 127 129 131 131 128 125 129 133 133 132 132 133 134 135 138 143 150 158 168 183 201 218 228 234 238 238 234 229 227
16 15 15 16 18 20 23 24 25 26 28 29 29 28 28 29 29 30 33 35 37 38 40 43 48 51 51 50 49 49 52 58 64 69 73 78 84 89 93 94 94 95 96 95 93 93 96 99 102 109 118 124 124 123 122 122 121 122 124 127 131 133 135 139 141 141 139 141 144 148 151 154 158 161 165 171 187 218 240 251 253 253 251 249 245 243
16 16 16 17 19 20 21 22 23 25 27 29 28 28 28 28 30 31 34 36 38 39 41 44 49 51 51 50 48 47 47 51 56 62 67 72 79 85 90 92 94 95 95 93 93 93 93 92 95 103 111 115 116 116 116 117 117 117 117 117 118 121 126 133 139 140 140 146 155 164 169 170 166 157 148 150 160 179 206 217 223 234 247 256 255 253
18 17 16 17 18 19 20 20 22 24 26 28 28 28 28 29 31 33 34 37 39 41 43 47 52 54 52 50 49 48 47 46 48 52 56 63 69 76 82 87 91 93 94 93 94 94 93 92 95 100 105 106 106 109 115 117 117 116 114 113 114 116 120 125 129 134 137 144 155 167 173 168 154 141 137 150 165 180 197 210 215 218 229 241 251 257
19 18 18 18 18 19 19 20 21 24 25 26 26 27 28 29 31 32 34 37 40 43 46 50 53 55 54 52 50 50 50 49 48 47 49 53 59 66 73 81 87 92 95 95 94 93 90 90 92 97 101 101 101 104 110 115 118 118 118 118 118 118 119 122 127 131 136 142 148 153 154 144 136 135 148 164 175 187 201 213 222 229 236 245 254 261
20 20 19 19 20 20 20 19 21 23 24 24 24 26 27 29 30 31 32 35 39 43 47 50 52 54 54 53 52 52 53 53 52 50 49 50 53 59 66 75 82 88 93 95 95 93 91 89 88 89 93 97 101 103 106 109 113 117 120 122 121 120 120 124 128 132 137 145 150 149 140 133 134 143 157 167 178 190 201 212 225 238 248 258 265 270
21 21 21 21 22 22 21 20 21 22 23 22 22 24 26 29 31 32 33 35 38 43 46 49 51 53 53 53 52 52 53 54 54 52 51 50 52 56 62 70 78 84 88 91 92 92 91 88 85 82 82 87 93 99 102 105 108 113 117 120 121 122 123 126 129 131 134 141 150 155 150 148 155 166 171 171 180 195 207 216 228 242 253 265 275 280
21 21 22 22 23 23 22 21 22 22 22 22 22 23 25 29 32 34 35 36 39 43 46 48 50 52 53 52 51 50 51 52 51 49 48 48 51 55 62 69 77 82 84 86 87 87 86 82 79 78 76 77 81 90 99 104 107 109 112 114 118 120 122 123 125 125 121 119 123 137 146 153 168 184 190 185 190 208 220 226 233 239 248 264 280 290
20 21 22 22 22 22 22 22 22 23 23 23 23 24 26 27 30 32 34 36 39 42 44 47 49 51 51 51 49 49 49 50 48 46 44 44 47 51 57 68 79 87 89 90 90 90 85 79 74 70 68 68 70 76 90 103 109 110 108 108 110 113 116 119 122 123 119 116 116 116 118 126 144 164 177 183 192 215 230 232 225 221 230 256 280 292